Showing default

NATO 2A, 4353

Orbit data source: Space-Track

NATO 2A, 4353 is a payload satellite owned by NATO (NATO) in GEO that was launched on Fri, 20 Mar 1970 UTC via a THOR DELTA M launch vehicle from the Air Force Eastern Test Range (AFETR). Payload-class satellites include a variety of spacecraft equipped with specific instruments for various scientific and technological missions. These include communications satellites like Starlink; space stations such as the ISS; scientific satellites like the Hubble; Earth observation satellites from companies like Planet Labs, Umbra, and HawkEye 360; GPS; miniature CubeSats for education and research; and military/defense satellites.

Loading next visibility...
Identifier
4353, 1970-021A
Orbit
GEO
Last TLE update
14 hours ago
Origin
Manufacturer
Philco-Ford
Mission
Non-operational Defense Communications
Bus & Motor
SKYNET, STAR 17A
Mass
243 kg wet, ~107 kg dry
Launch date (UTC)
1970-03-20 (55 years ago)
Launch vehicle
THOR DELTA M
Launch site
Air Force Eastern Test Range (AFETR)
Object type
Payload
Rocket body
Debris
Shape & HBR
Cyl, 1.4 m
Radar Cross Section
1.131 m², Large (>1 m²)

Expand to show TLE details & history

TLE from 14 hours ago
0 NATO 2A
1 04353U 70021A   25183.61638288 -.00000055  00000-0  00000-0 0  9997
2 04353   1.2535 285.6756 0002272 265.6675 202.5295  1.00265366122269
Epoch: 2025-07-02T14:47Z
TLE epoch observation values (Epoch: 2025-07-02T14:47:35.48Z)
Latitude
1.19837°
Longitude
-108.91828°
Altitude
35,796.553 km
Speed
3.074 km/s
True Right ascension
02h 15m 29s
True Declination
1° 11' 50"
Sunlit
Object was in daylight at epoch
Visualization orbit readout
Latitude
-0.87746°
Longitude
99.35549°
Altitude
35,781.96 km
Speed
3.075 km/s
Apparent Right ascension
16h 06m 36s
Apparent Declination
-7° 12' 42"
Sunlit
Object is in daylight
Visualization observer readout
Local Sidereal Time
16:23:43
Azimuth
185.782° SSW
Elevation
42.707°
Doppler factor
1
Orbital elements
Apogee altitude
35,799.045 km
Perigee altitude
35,779.884 km
Semi-major axis
42,167.601 km
Eccentricity
0.00023
Inclination
1.2535°
RAAN
285.6756°
Arg. of periapsis
265.6675°
True anomaly
Unknown
Mean anomaly
202.5295°
Eccentric anomaly
Unknown
Mean motion
0.25065 °/min
Orbital period
1,436.24 mins
BSTAR
0
Loading historical data...
4353 neighbors
Loading maneuver chart data...
Loading SW <> Apogee altitude chart data...
Loading historical data...
Loading historical data...
Loading historical data...
Loading historical data...
Loading historical data...
Loading historical data...
Loading historical data...
Other satellites on launch #21 in the year 1970 (1970-03-20 UTC)

NATO 2A Visibility forecast

Observer location: undefined°, undefined°

Span
Click to sort rows by Start time (UTC) header in descending order
Start Az.
Max El. time (UTC)
Max El. Az.
Max El.
End time (UTC)
End Az.
1440 mins2025-07-03 04:38:20.460Z185.78° SSW2025-07-03 13:43:20.460Z186.104° SSW35.294°2025-07-04 04:38:20.460Z185.82° SSW
|